Hattiesburg, MS

2:47 AM CDT on May 29, 2017 (GMT -0500)
Chain Municipal

Weather History for KHBG - January, 2007

Change the Weather History Date:

Wednesday, January 31, 2007

  Actual Average Record
Temperature  
Mean Temperature 38 °F 49 °F  
Max Temperature 48 °F 60 °F 83 °F (1950)
Min Temperature 28 °F 37 °F 10 °F (1966)
Degree Days  
Heating Degree Days 27 16  
Month to date heating degree days 519  
Since 1 July heating degree days 1299  
Cooling Degree Days 0 0  
Month to date cooling degree days 6  
Year to date cooling degree days 6  
Moisture  
Dew Point 22 °F    
Average Humidity 52    
Maximum Humidity 86    
Minimum Humidity 28    
Precipitation  
Precipitation 0.18 in 0.22 in 1.74 in (2008)
Month to date precipitation 5.74  
Year to date precipitation 5.74  
Sea Level Pressure  
Sea Level Pressure 30.13 in    
Wind  
Wind Speed 6 mph (ENE)    
Max Wind Speed 10 mph    
Max Gust Speed -    
Visibility 10 miles    
Events Rain    
T = Trace of Precipitation, MM = Missing Value Source: NWS Daily Summary

Daily Weather History Graph

Daily Weather History Graph

Search for Another Location

Airport or City:

Trip Planner

Search our weather history database for the weather conditions in past years. The results will help you decide how hot, cold, wet, or windy it might be!

Date:

Astronomy

Jan. 31, 2007 Rise Set
Actual Time 6:50 AM CST 5:31 PM CST
Civil Twilight 6:24 AM CST 5:56 PM CST
Nautical Twilight 5:55 AM CST 6:25 PM CST
Astronomical Twilight 5:26 AM CST 6:54 PM CST
Moon 4:05 PM CST (1/31) 5:56 AM CST (1/31)
Length of Visible Light 11h 31m
Length of Day
10h 40m
Waxing Gibbous, 98% of the Moon is Illuminated
Jan 31
Waxing Gibbous
Feb 1
Full
Feb 10
Last Quarter
Feb 17
New
Feb 24
First Quarter

Hourly Weather History & Observations

Time (CST) Temp. Windchill Dew Point Humidity Pressure Visibility Wind Dir Wind Speed Gust Speed Precip Events Conditions
12:53 AM 37.0 °F 32.4 °F 25.0 °F 62% 30.25 in 10.0 mi North 5.8 mph - N/A   Clear
1:53 AM 36.0 °F 31.1 °F 23.0 °F 59% 30.25 in 10.0 mi NNE 5.8 mph - N/A   Clear
2:53 AM 34.0 °F 28.8 °F 21.0 °F 59% 30.25 in 10.0 mi NNE 5.8 mph - N/A   Clear
3:53 AM 32.0 °F 26.4 °F 19.9 °F 61% 30.24 in 10.0 mi NNE 5.8 mph - N/A   Clear
4:53 AM 30.9 °F 24.3 °F 18.0 °F 59% 30.24 in 10.0 mi NE 6.9 mph - N/A   Clear
5:53 AM 30.0 °F 23.2 °F 16.0 °F 56% 30.24 in 10.0 mi NE 6.9 mph - N/A   Clear
6:53 AM 28.9 °F 25.2 °F 16.0 °F 58% 30.27 in 10.0 mi ENE 3.5 mph - N/A   Clear
7:53 AM 30.9 °F 24.3 °F 17.1 °F 57% 30.26 in 10.0 mi ENE 6.9 mph - N/A   Clear
8:53 AM 34.0 °F 26.0 °F 14.0 °F 44% 30.27 in 10.0 mi ENE 10.4 mph - N/A   Clear
9:53 AM 37.0 °F 29.8 °F 15.1 °F 41% 30.25 in 10.0 mi East 10.4 mph - N/A   Clear
10:53 AM 39.0 °F 35.7 °F 15.1 °F 38% 30.23 in 10.0 mi Variable 4.6 mph - N/A   Clear
11:53 AM 43.0 °F 39.5 °F 15.1 °F 32% 30.19 in 10.0 mi Variable 5.8 mph - N/A   Scattered Clouds
12:53 PM 46.9 °F - 16.0 °F 29% 30.14 in 10.0 mi East 6.9 mph - N/A   Clear
1:53 PM 48.0 °F - 16.0 °F 28% 30.12 in 10.0 mi ENE 9.2 mph - N/A   Overcast
2:53 PM 48.0 °F - 16.0 °F 28% 30.10 in 10.0 mi NE 5.8 mph - N/A   Overcast
3:53 PM 46.9 °F - 17.1 °F 30% 30.09 in 10.0 mi ESE 3.5 mph - N/A   Overcast
4:53 PM 46.9 °F - 19.0 °F 33% 30.07 in 9.0 mi NNE 4.6 mph - N/A   Overcast
5:53 PM 45.0 °F 41.8 °F 25.0 °F 46% 30.05 in 9.0 mi NNE 5.8 mph - N/A   Overcast
6:53 PM 45.0 °F 43.5 °F 26.1 °F 48% 30.03 in 10.0 mi East 3.5 mph - 0.00 in Rain Light Rain
7:53 PM 46.0 °F - 24.1 °F 42% 30.01 in 10.0 mi Calm Calm - 0.00 in   Overcast
8:26 PM 44.6 °F 43.1 °F 28.4 °F 53% 30.01 in 7.0 mi ENE 3.5 mph - 0.01 in Rain Rain
8:53 PM 42.1 °F 40.2 °F 35.1 °F 76% 30.01 in 9.0 mi North 3.5 mph - 0.03 in Rain Light Rain
9:53 PM 39.9 °F 36.7 °F 36.0 °F 86% 29.97 in 10.0 mi ESE 4.6 mph - 0.08 in   Overcast
10:53 PM 41.0 °F - 35.1 °F 79% 29.94 in 10.0 mi Calm Calm - N/A   Overcast
11:41 PM 41.0 °F 39.0 °F 33.8 °F 76% 29.91 in 10.0 mi East 3.5 mph - 0.01 in Rain Light Rain
11:53 PM 39.9 °F 36.7 °F 35.1 °F 83% 29.90 in 3.0 mi East 4.6 mph - 0.07 in Rain Rain